Theta_e
311 311 311 310 309 309 309 308 308 308 307 307 307 307 307 307 307 307 307 307 307 307 307 307 307 307 307 308 308 307 307 307 308 308 309 309 310 311 311 311 311 312 313 313 313 314 314 313 314 315 316 316 315 316 316 317 317 317 317 317 316 315 315
310 310 310 310 309 309 309 308 308 308 307 307 307 307 307 306 306 306 306 306 306 306 307 307 307 307 307 307 307 307 307 307 308 308 309 309 310 311 310 311 310 311 313 313 313 314 316 315 314 314 316 315 314 314 314 314 315 315 315 315 314 313 313
310 310 310 309 309 309 308 308 308 308 307 307 307 307 306 306 306 306 306 306 306 306 306 307 307 307 307 307 307 307 307 307 308 308 309 309 310 310 309 309 309 310 312 313 313 314 315 315 314 314 315 314 314 313 312 311 311 311 312 313 313 313 313
309 309 309 309 308 308 308 308 307 307 307 306 307 306 305 305 305 306 306 306 306 306 306 307 307 307 307 306 307 307 307 307 308 308 308 308 309 308 307 307 308 309 310 312 314 314 315 315 314 314 315 313 313 312 311 309 308 308 310 311 312 312 312
309 308 308 308 308 308 307 307 307 306 306 306 306 306 305 305 305 305 305 306 306 306 306 307 307 306 306 306 306 307 307 307 307 306 306 307 307 307 306 306 307 308 310 311 313 314 315 316 315 314 314 313 312 311 309 308 308 309 310 311 311 311 310
308 308 308 307 307 307 307 306 306 306 306 306 305 305 304 305 305 305 305 305 306 306 306 306 307 306 306 306 305 305 305 305 305 305 305 305 305 305 306 306 306 308 309 310 313 314 316 315 314 314 314 313 311 310 308 307 307 308 309 310 311 310 309
308 307 307 307 307 306 306 306 305 305 305 305 304 304 304 305 305 305 305 306 305 305 306 306 306 306 306 305 305 304 304 304 304 304 305 305 305 305 305 306 307 308 309 310 313 314 315 315 314 314 314 312 310 309 308 307 306 307 308 309 310 309 308
307 307 306 306 306 306 306 306 305 304 304 304 304 304 304 305 305 305 305 306 305 306 306 307 306 306 305 305 304 304 303 303 303 304 304 304 304 305 306 307 308 309 310 311 313 314 315 315 314 314 313 312 311 309 307 305 304 305 306 307 308 307 307
307 306 306 306 306 305 305 305 305 304 304 304 304 304 304 305 305 305 305 306 305 306 306 306 306 306 305 305 304 304 303 303 303 304 304 304 305 306 307 309 309 310 311 312 313 315 315 316 316 315 313 312 310 308 305 304 304 305 306 307 306 304 306
306 306 306 306 306 305 305 305 305 304 304 303 303 304 304 305 305 305 305 305 305 306 306 306 306 305 305 306 305 304 303 302 303 304 304 305 306 307 310 312 312 312 314 314 315 316 315 316 317 315 314 312 310 308 305 303 303 303 304 306 305 304 305
306 306 306 306 305 305 305 305 304 304 304 303 303 304 304 305 305 305 305 306 306 306 306 306 306 305 306 306 306 304 303 302 303 304 305 305 306 309 313 315 315 314 315 316 317 317 316 316 316 315 314 313 311 308 306 304 304 304 304 304 305 304 304
306 306 306 306 305 305 304 304 304 304 304 303 303 304 304 304 304 304 305 306 306 306 306 305 306 305 306 307 305 304 303 303 303 304 305 305 307 310 314 315 315 314 315 316 317 317 316 315 314 313 312 311 310 308 306 304 304 304 304 304 304 304 304
306 306 305 305 305 304 304 304 304 305 304 303 303 304 304 304 304 304 305 306 306 305 305 305 305 305 306 306 305 303 302 303 304 304 305 305 307 310 313 313 314 314 315 315 316 316 314 313 312 311 308 307 306 305 304 304 304 305 304 304 304 303 303
306 306 305 305 304 304 304 305 305 305 304 304 304 304 304 304 303 304 305 305 305 305 305 305 305 305 306 306 305 303 302 303 304 305 305 306 306 309 312 312 312 313 313 313 314 312 311 311 310 309 307 305 305 303 302 304 305 305 304 303 304 304 304
306 306 305 304 304 304 304 304 304 304 304 304 304 304 304 303 303 304 305 305 304 305 304 304 305 305 306 307 306 303 301 302 304 305 306 307 307 309 312 313 312 312 312 312 312 311 310 310 309 308 306 305 305 303 302 302 304 304 304 304 304 304 305
306 305 305 304 304 304 304 304 304 303 304 304 304 304 303 303 303 304 304 304 304 304 304 304 304 304 305 306 306 303 301 301 303 305 306 307 308 309 311 312 312 312 311 312 312 311 311 311 309 307 307 306 306 305 303 302 303 303 304 304 305 305 306
305 305 304 304 303 303 303 303 303 303 303 303 304 303 303 303 303 304 304 304 303 303 303 303 303 303 304 305 305 303 301 301 302 304 304 306 308 309 310 312 312 312 311 312 312 311 311 310 309 308 308 308 307 305 303 302 303 304 305 306 306 307 307
305 304 304 303 303 303 303 303 303 303 303 303 303 303 302 302 302 303 304 304 303 302 302 302 301 302 302 304 305 303 302 301 302 303 304 305 307 309 309 311 312 312 312 312 311 311 310 309 308 308 309 309 307 305 303 304 305 306 307 308 308 308 308
305 304 303 303 303 303 302 302 302 302 302 302 302 302 302 302 302 303 304 304 303 302 301 300 299 300 301 303 304 304 302 301 302 302 303 304 306 307 309 310 310 311 312 312 311 311 311 310 309 308 308 308 308 308 307 307 308 309 309 309 309 309 310
304 303 303 303 302 302 302 302 302 302 302 302 302 302 301 301 302 303 303 303 303 301 300 299 298 298 299 301 304 304 302 301 302 302 303 303 304 305 307 308 309 310 310 311 312 312 312 312 311 310 308 307 309 310 310 310 310 310 310 310 310 310 311
303 303 302 302 302 302 301 301 302 302 302 302 301 301 301 301 302 303 303 303 302 300 298 297 297 297 298 299 302 305 303 302 302 303 303 303 303 304 305 306 307 308 309 309 310 312 313 313 313 312 310 309 310 311 311 311 311 310 311 311 311 311 311
302 302 302 302 302 301 301 301 301 301 301 301 301 301 301 301 302 303 303 302 301 300 297 296 296 296 297 298 301 304 304 302 302 303 303 303 303 303 303 304 305 307 308 309 309 310 311 312 313 313 312 311 312 312 311 311 311 311 312 312 311 311 311
302 301 301 301 301 301 301 301 301 301 301 301 301 301 301 301 302 302 302 301 301 299 296 296 297 298 298 298 301 304 304 303 302 303 303 303 302 302 302 303 305 307 309 310 310 310 309 309 310 311 312 313 312 312 312 312 312 312 312 312 312 312 312
301 301 301 301 301 300 300 300 301 301 301 301 301 300 300 301 301 301 302 301 300 298 296 296 299 300 299 299 301 303 304 303 303 303 303 302 301 302 303 304 305 307 309 310 310 311 310 310 309 309 310 311 312 312 314 314 313 312 312 313 313 313 313
301 301 300 300 300 300 299 300 300 301 301 301 301 300 300 300 300 301 301 301 300 297 296 297 299 300 299 300 301 303 304 303 303 303 303 302 301 301 303 304 305 306 307 307 309 311 311 311 311 310 310 310 311 312 313 315 314 313 313 313 313 312 312
300 300 300 300 299 299 299 299 300 300 300 300 300 300 300 300 300 300 300 301 299 297 296 298 300 299 300 300 300 302 303 303 302 302 302 302 301 300 301 302 303 305 306 307 308 309 311 312 313 311 310 309 309 309 310 310 311 311 311 312 311 311 311
300 300 300 299 299 298 298 299 300 300 300 300 300 300 300 299 299 300 300 300 299 297 296 298 300 300 300 300 300 302 303 303 302 302 302 301 300 299 299 300 301 302 304 306 307 308 310 312 313 311 309 307 308 307 308 309 310 310 310 310 309 308 308
300 300 299 299 298 298 298 299 299 299 300 300 300 299 299 299 299 299 299 299 299 297 296 298 300 300 300 300 300 302 303 303 302 301 301 301 299 298 298 298 299 299 301 304 306 307 309 311 313 312 309 307 306 305 305 306 307 308 308 307 306 305 304
300 299 299 298 298 297 298 298 298 299 299 299 299 299 299 299 298 298 298 298 299 297 295 297 299 300 300 300 301 302 303 302 302 302 301 300 299 297 297 298 298 297 300 303 306 307 308 309 311 313 312 311 309 307 305 303 303 303 304 304 304 304 303
299 299 298 298 297 297 297 298 298 298 299 299 299 299 299 298 298 297 297 296 297 297 295 295 298 299 300 300 300 301 302 302 302 302 301 300 300 298 297 298 299 298 299 302 305 307 308 308 309 310 311 312 312 311 309 307 305 304 304 305 305 305 305
299 298 298 297 297 297 297 297 297 298 298 298 298 298 298 298 297 297 296 295 295 296 295 294 296 298 299 300 300 300 301 302 302 301 301 300 300 299 297 298 299 299 299 301 305 307 307 307 307 307 309 311 310 310 309 310 309 308 307 308 308 308 308
298 297 297 297 297 296 296 297 297 297 297 298 298 298 298 298 297 297 296 295 294 294 294 293 295 297 298 299 300 299 299 300 301 301 301 300 300 299 297 296 297 298 298 300 303 305 306 306 305 305 306 308 308 308 307 308 309 310 310 309 310 310 309
297 297 296 296 296 296 296 296 297 297 297 297 297 297 297 297 297 296 296 296 294 293 293 292 293 295 297 298 299 298 297 297 299 300 300 300 299 299 298 296 295 295 296 298 301 303 304 304 303 302 302 303 303 305 306 307 307 308 309 309 309 309 309
297 296 296 296 296 295 296 296 296 296 296 296 296 297 297 297 297 296 295 295 295 294 293 291 291 293 295 296 298 298 295 294 296 299 299 299 298 298 297 295 293 294 295 296 298 300 302 302 302 300 299 299 300 302 305 306 306 305 306 307 308 308 307
295 295 295 295 295 295 295 296 296 295 295 295 295 295 295 295 295 296 295 295 295 294 294 293 292 292 293 294 296 296 294 293 295 297 298 297 297 296 295 294 293 293 294 295 296 298 300 300 300 299 299 300 302 302 303 304 304 304 304 306 307 307 306
295 295 295 295 295 295 295 295 296 296 295 294 294 294 294 294 294 294 294 294 294 294 294 294 293 292 292 293 294 294 294 293 293 295 295 295 295 294 293 293 293 294 295 295 295 296 298 298 298 299 300 302 302 303 302 302 303 303 304 305 305 305 305
295 295 295 295 295 295 295 295 295 295 295 295 294 293 293 293 293 293 293 292 292 293 293 293 292 292 291 292 292 292 293 292 292 292 293 293 292 292 292 292 293 295 296 296 295 296 297 297 297 298 300 300 300 300 301 301 302 303 304 304 304 304 304
Wind_Speed
12 12 12 13 13 13 15 15 15 14 16 17 17 18 19 20 20 22 22 22 22 22 23 22 20 20 20 20 21 22 21 20 21 22 22 21 19 19 21 21 19 20 19 15 11 7 7 4 5 9 11 15 19 20 22 23 27 33 34 32 31 33 31
12 12 12 13 13 14 15 15 15 15 16 17 17 18 19 21 21 22 22 21 22 23 22 20 19 20 20 21 22 24 23 21 21 22 23 23 20 19 20 21 20 20 18 15 11 7 7 5 4 5 6 14 18 22 28 29 30 33 32 30 30 30 28
13 13 13 14 14 14 15 16 16 16 17 18 18 18 20 21 22 23 22 22 22 22 20 19 20 21 21 22 23 24 23 22 23 23 24 23 20 20 23 22 19 18 15 10 8 7 5 4 4 5 6 10 10 17 29 32 29 31 30 28 28 27 24
13 13 14 15 15 15 16 17 17 16 17 18 18 18 20 23 23 23 22 21 21 21 20 20 22 23 23 23 23 23 23 23 24 24 24 22 19 22 26 24 20 17 13 10 9 8 4 2 3 5 8 12 10 13 25 31 29 27 27 26 26 25 23
14 14 15 16 17 16 17 17 17 17 17 18 18 19 21 23 23 22 22 22 20 20 20 21 23 24 25 24 22 23 24 23 23 25 24 22 22 24 25 24 22 18 15 13 13 10 6 3 6 6 6 11 10 12 21 28 26 24 23 23 24 24 24
14 15 15 16 17 17 17 17 18 18 18 19 19 20 21 23 23 22 23 23 20 20 21 22 23 24 24 23 23 24 25 24 24 26 25 23 24 24 23 22 20 16 14 14 12 9 6 2 9 7 7 12 11 9 16 21 21 21 21 22 23 23 23
14 15 15 16 16 16 16 17 17 18 18 19 19 20 21 22 23 22 22 21 20 20 22 23 23 22 23 24 25 24 24 25 27 27 25 25 26 24 22 20 16 14 13 12 10 6 6 2 10 10 9 12 12 10 12 15 16 15 15 19 21 21 19
14 14 15 15 15 16 15 16 17 17 18 18 19 20 21 22 22 21 21 20 19 20 21 23 23 23 25 26 27 27 26 27 28 28 26 26 25 23 20 16 13 12 10 10 10 6 6 1 12 17 13 11 10 9 9 11 14 12 11 16 20 19 15
14 14 14 15 15 15 15 15 16 16 17 18 19 20 21 22 22 21 20 19 19 19 21 22 23 24 26 27 29 30 30 30 29 28 29 26 22 20 17 13 10 10 8 8 8 5 3 3 11 16 15 12 10 9 8 8 9 9 10 13 16 16 13
14 15 15 15 15 14 14 15 15 16 17 18 19 20 21 22 22 20 20 19 20 21 22 22 22 24 26 27 30 30 30 31 28 28 31 27 22 22 20 14 8 7 7 5 3 1 4 7 10 12 13 12 10 9 9 8 7 7 8 9 10 10 10
14 14 14 14 14 14 15 15 15 16 17 19 19 20 21 21 21 20 20 20 21 22 23 23 23 25 26 27 30 29 29 30 28 31 34 29 29 33 27 15 9 8 9 6 4 3 7 12 14 14 13 11 11 10 10 9 8 8 7 7 8 8 9
14 14 14 14 14 15 15 16 16 16 17 19 19 20 21 21 21 21 20 20 21 22 23 23 23 25 26 28 29 29 29 28 27 33 35 29 31 37 33 25 21 19 18 17 12 9 13 17 18 18 18 18 17 14 14 12 8 8 7 7 8 9 8
13 14 14 14 15 15 15 16 16 16 17 18 19 20 21 21 21 21 20 21 21 22 23 24 24 24 26 28 28 29 30 28 27 32 35 32 33 36 34 32 30 24 21 21 19 19 22 24 24 24 25 25 22 20 22 17 9 8 8 6 9 8 7
13 13 14 15 15 15 15 15 16 16 17 18 19 20 20 21 20 20 20 21 22 22 23 24 24 24 26 28 28 31 34 31 28 29 31 33 36 36 34 32 30 26 24 24 25 27 28 26 26 28 28 28 24 23 27 22 11 8 8 7 9 8 6
13 13 14 15 16 15 15 15 15 16 16 17 18 20 20 20 20 20 19 21 22 23 24 24 24 24 25 28 29 32 35 32 28 29 29 30 35 37 34 33 31 29 28 29 29 29 29 28 28 29 28 27 24 21 24 22 13 8 8 8 9 8 5
13 13 14 15 16 16 15 15 15 16 16 16 17 19 19 20 20 19 20 22 22 23 25 25 25 24 24 27 27 30 35 32 28 29 29 27 31 35 36 35 32 29 27 26 26 25 24 23 25 27 25 23 20 18 19 17 13 11 10 8 8 7 6
13 13 14 15 16 16 16 15 15 16 16 16 17 19 19 19 20 20 20 22 23 24 26 26 26 25 23 25 25 27 34 35 28 26 28 27 27 31 34 34 31 27 24 23 22 21 20 21 24 24 21 17 16 16 15 13 12 11 10 9 9 8 6
13 13 13 14 15 16 16 16 16 16 16 17 17 19 19 19 20 20 20 22 23 24 25 26 27 26 23 23 23 24 31 36 30 26 26 26 26 27 29 31 30 26 23 21 20 21 21 22 23 21 15 13 14 14 13 12 12 11 11 11 10 8 6
12 13 13 14 14 15 16 16 16 16 16 17 17 18 19 19 19 19 20 21 22 23 24 26 28 27 25 23 22 22 27 34 34 29 25 25 24 25 26 28 28 26 24 21 19 18 18 17 16 14 12 12 13 13 13 13 12 12 12 11 9 8 7
12 12 13 13 14 14 15 16 16 16 16 16 16 17 19 18 18 19 19 19 21 23 24 26 29 30 27 23 21 21 23 30 34 32 27 26 24 23 24 26 27 27 25 21 17 14 13 12 12 12 12 13 12 11 12 14 12 11 11 10 9 9 8
12 12 12 13 13 14 15 15 16 16 16 16 16 17 18 18 18 19 19 19 20 22 23 26 29 31 30 25 21 20 21 25 28 27 26 27 27 26 24 24 25 26 26 24 20 15 12 11 11 11 10 10 10 10 12 13 12 11 12 11 9 9 9
11 12 12 13 13 14 14 15 15 16 16 16 16 16 18 18 18 19 20 19 19 20 23 26 27 28 29 26 21 18 19 21 23 23 23 25 27 27 27 26 26 27 27 28 26 20 15 13 13 13 11 9 8 9 12 13 13 12 11 11 10 10 10
10 11 12 12 13 13 14 14 15 16 16 17 16 16 18 19 19 19 20 20 19 21 26 28 26 25 25 25 21 17 17 19 21 22 23 24 25 27 28 28 28 27 27 27 27 25 21 16 14 14 13 12 10 10 12 13 13 12 12 11 11 11 10
10 11 12 12 13 14 13 13 14 15 16 17 16 16 18 19 20 19 19 20 20 21 26 28 25 24 25 26 22 17 16 18 20 21 23 24 26 29 31 31 30 28 26 24 23 23 22 19 17 15 14 13 13 12 12 13 13 13 13 13 13 12 11
10 10 11 12 12 13 13 13 14 14 15 16 16 17 17 18 19 19 18 20 20 21 27 27 24 23 25 27 25 19 16 17 18 20 23 23 25 29 32 32 31 29 26 23 21 19 18 19 19 19 18 18 18 17 15 15 15 15 14 14 13 13 13
10 10 11 11 12 12 13 13 13 13 15 15 15 16 17 17 18 18 18 19 18 22 28 28 24 23 24 27 26 20 17 17 17 19 21 23 24 26 27 28 29 29 27 24 21 19 17 16 16 18 22 23 23 23 22 21 20 19 17 15 14 14 14
10 10 10 10 11 12 12 13 13 12 13 14 15 16 17 17 17 18 19 19 18 22 29 28 24 23 23 25 26 21 17 17 17 18 20 22 23 24 23 23 24 25 26 25 22 20 20 18 15 17 24 27 26 25 24 22 21 19 18 17 16 17 18
10 10 10 10 11 12 12 12 12 12 12 13 14 15 15 16 17 17 18 19 17 21 28 28 25 24 23 24 24 19 16 17 17 17 19 21 23 26 24 21 20 22 24 24 22 19 19 19 15 15 21 25 25 26 26 23 20 18 18 19 20 22 24
9 9 9 10 10 11 11 11 11 11 11 12 13 14 14 15 17 18 19 19 17 19 26 28 26 24 23 23 23 19 16 17 17 17 18 19 22 28 28 24 22 23 24 22 20 18 19 19 16 14 16 17 18 22 23 22 22 20 20 22 22 24 25
9 9 10 10 10 10 10 10 11 11 11 12 12 13 14 14 16 18 19 21 18 17 24 29 27 24 24 24 22 18 16 16 17 17 18 17 18 24 29 28 25 25 25 22 18 17 18 18 17 15 14 12 12 14 15 15 17 18 19 20 21 22 22
10 10 10 10 10 10 10 10 10 10 11 12 12 13 14 14 16 17 18 21 21 17 21 28 28 25 24 24 22 18 16 16 17 17 17 17 16 18 24 27 27 26 26 23 18 15 15 16 16 15 13 11 11 12 12 11 10 11 13 15 16 17 18
10 10 10 10 10 10 10 10 10 10 10 11 12 12 14 14 16 17 16 19 23 21 20 25 29 26 23 23 23 19 16 16 17 17 16 16 16 16 18 23 27 27 24 22 20 17 15 15 16 15 13 11 10 12 13 11 9 9 9 11 12 13 15
10 10 10 10 10 10 10 10 11 11 11 12 11 12 13 14 15 17 17 17 21 23 22 22 26 28 25 23 22 20 19 18 17 17 16 16 16 17 17 20 24 27 25 22 21 19 18 18 18 17 16 14 13 12 11 11 11 12 10 10 11 12 13
10 10 10 10 10 10 10 10 11 12 12 13 13 12 13 13 14 15 17 16 17 20 23 23 25 27 27 25 22 21 20 19 17 15 15 16 17 17 18 18 22 26 27 24 22 20 19 19 19 19 19 16 13 13 12 11 12 13 12 11 12 13 14
10 10 9 10 10 11 11 11 11 12 12 13 14 14 13 14 14 14 15 16 16 16 19 22 24 26 27 26 24 22 21 20 18 15 15 16 17 17 17 18 21 24 26 26 25 22 20 20 20 19 18 15 13 15 14 13 13 15 15 14 13 14 16
10 10 10 10 11 11 11 11 11 11 11 12 13 14 14 14 14 15 15 15 16 15 16 18 22 25 26 26 25 24 22 22 21 17 15 16 16 16 17 19 22 24 25 26 27 25 24 23 22 20 17 15 15 16 16 17 18 17 15 15 14 15 16
10 10 9 10 10 11 10 11 11 11 11 11 12 13 13 13 14 15 15 15 16 16 15 16 18 22 24 24 24 25 24 24 23 19 16 16 16 17 19 23 25 26 26 26 26 26 26 27 26 23 21 19 19 20 18 18 18 16 15 15 15 15 16
Wind_Direction
17 14 13 13 12 9 6 3 0 356 354 355 356 359 1 4 4 2 358 353 350 347 346 345 342 336 333 331 332 331 328 325 324 321 317 317 316 317 326 330 327 323 319 305 284 287 306 307 46 48 53 58 61 70 79 88 94 97 100 97 97 103 106
19 16 13 13 12 9 6 4 0 356 354 355 358 1 3 4 4 2 357 352 351 349 347 344 339 336 333 332 332 331 328 325 322 318 317 319 319 320 327 332 330 327 327 319 297 284 291 302 22 41 66 68 56 61 74 78 81 89 95 96 97 100 101
20 19 17 14 12 9 6 4 1 357 355 356 359 2 4 4 4 1 355 352 352 350 346 343 340 339 336 333 332 330 329 326 323 321 320 319 319 322 328 331 331 328 326 326 315 308 301 310 26 43 67 76 58 59 72 74 75 81 86 90 97 100 98
21 20 19 15 11 9 6 4 1 357 355 357 359 2 3 4 2 358 354 353 353 349 346 344 342 340 338 336 333 331 332 330 328 328 325 320 320 324 327 327 325 321 312 310 315 316 316 347 66 81 75 76 70 65 73 76 78 80 83 89 94 96 93
23 22 20 17 11 8 6 4 2 357 356 358 360 2 2 3 0 354 353 354 352 348 348 346 344 342 341 338 334 334 336 335 333 332 327 323 324 324 324 324 322 315 306 307 314 310 312 29 88 108 103 90 76 63 72 78 79 77 81 89 89 86 85
27 25 22 18 12 8 6 5 4 360 358 358 0 1 360 360 358 353 354 355 351 348 349 347 345 345 343 337 334 337 339 336 334 333 329 326 326 323 321 323 320 312 305 305 310 308 302 76 109 116 111 102 93 73 67 72 78 73 70 77 80 77 82
28 26 23 18 12 9 8 7 7 4 0 0 1 360 358 358 357 354 355 356 351 350 351 350 348 345 343 339 339 341 339 336 337 337 336 332 329 327 325 325 319 310 307 301 302 297 277 207 122 121 109 99 97 90 71 66 75 71 58 62 70 73 82
29 27 24 20 15 12 10 9 9 6 3 2 2 0 0 359 357 356 358 357 353 352 352 351 350 348 346 344 344 343 341 342 343 343 344 338 332 331 328 327 320 313 310 300 300 288 266 224 121 126 125 114 104 97 84 75 76 70 56 59 69 75 82
30 27 23 20 17 14 13 11 9 6 3 4 4 2 3 2 359 358 360 357 351 349 346 345 349 352 350 347 346 345 346 350 351 350 349 343 339 338 333 331 325 319 314 300 298 280 233 148 128 134 132 125 118 110 105 101 93 83 66 58 69 78 80
30 28 25 22 19 16 15 13 9 5 5 8 7 5 5 5 2 2 2 356 349 346 345 344 351 356 353 351 352 350 351 354 356 358 356 353 353 349 344 343 337 329 326 311 303 240 165 148 138 133 123 117 122 124 120 112 106 98 73 52 68 89 92
31 29 27 24 21 18 17 15 9 5 8 12 11 8 8 7 6 7 5 358 350 348 348 348 355 1 357 356 356 355 357 359 1 4 5 5 6 4 5 14 29 26 17 27 69 117 140 137 130 116 98 96 110 119 121 115 103 95 82 65 80 105 105
33 32 30 26 23 20 17 15 10 6 11 15 13 11 11 10 9 10 8 1 352 350 351 351 357 3 2 1 360 358 1 4 4 7 10 12 12 15 26 39 46 47 46 53 70 98 111 110 108 99 89 93 102 104 107 111 107 98 89 79 95 108 104
35 33 30 26 24 20 16 15 11 7 12 17 16 14 15 14 13 13 12 4 356 352 353 354 358 4 5 6 3 360 2 7 8 8 13 16 16 20 31 40 42 43 49 60 76 90 93 93 95 95 96 99 100 102 102 101 101 108 105 98 109 114 107
35 33 30 26 24 20 17 15 11 7 11 17 18 16 17 18 16 16 14 6 358 355 355 356 359 3 7 8 6 4 6 9 11 11 13 17 19 22 30 38 41 46 57 71 83 89 90 91 94 95 99 102 100 103 106 102 99 107 110 109 115 119 120
35 32 30 26 23 20 17 15 12 9 9 14 19 19 19 20 20 19 14 5 359 358 358 359 0 3 7 10 9 9 10 11 13 15 16 17 19 23 30 37 41 50 63 72 80 88 90 92 97 99 101 103 101 103 107 107 105 107 109 113 118 118 116
34 33 31 27 23 20 17 15 14 12 10 12 18 22 22 23 24 23 15 7 3 1 360 1 3 4 7 13 12 10 14 16 14 16 20 19 19 24 31 36 40 47 57 65 73 83 86 87 96 100 99 98 98 99 104 106 108 111 112 115 122 119 106
33 33 32 28 24 21 17 15 15 15 13 12 18 23 24 25 27 26 19 12 6 3 1 0 4 5 6 11 11 10 17 22 18 18 23 23 22 25 30 35 40 45 51 58 65 73 80 86 94 97 94 92 95 100 105 109 112 115 116 116 118 116 111
32 32 32 29 25 22 19 16 15 15 15 14 19 24 25 26 27 26 23 16 8 4 2 0 4 5 3 7 10 9 17 24 24 22 25 29 29 29 31 33 36 41 48 56 62 68 76 87 94 94 91 89 93 100 108 112 112 109 106 108 109 106 99
31 30 31 29 26 24 21 18 15 16 16 15 19 25 26 27 29 28 26 21 12 5 3 3 6 7 3 4 9 10 14 25 30 27 25 29 32 33 35 36 36 37 43 52 61 65 70 78 85 85 85 90 94 100 106 104 103 102 98 100 104 101 90
31 30 31 30 28 26 23 19 17 16 16 17 20 25 27 28 30 29 28 23 14 6 5 6 9 11 9 6 8 9 11 23 31 29 24 27 31 34 37 39 39 39 39 43 53 59 61 67 75 80 88 96 94 96 102 102 102 99 92 89 91 88 83
32 31 32 32 30 28 24 21 19 17 17 19 21 25 28 29 29 31 30 25 16 9 8 9 10 13 16 14 10 8 10 17 23 23 23 28 32 35 39 40 41 43 43 44 51 59 61 62 67 74 90 100 94 91 96 100 99 91 86 87 86 80 78
35 34 34 34 31 29 26 23 22 21 20 21 21 25 29 30 30 32 31 28 20 13 11 13 14 15 19 20 16 9 11 14 16 18 22 27 33 37 42 45 46 51 54 53 53 58 67 74 71 69 77 82 81 86 89 90 89 82 79 80 78 72 68
40 37 36 35 32 30 28 26 25 24 23 22 21 26 31 32 31 31 31 28 22 17 16 17 20 22 25 29 25 14 12 16 17 19 21 24 30 35 40 44 47 54 63 62 55 53 59 70 73 72 75 70 62 66 71 72 75 75 70 64 59 57 58
46 42 39 37 34 32 31 30 29 27 25 24 23 27 33 33 31 32 32 29 24 19 17 19 24 28 32 38 36 23 16 19 21 22 23 22 26 34 40 44 46 51 59 62 60 56 52 56 65 71 73 72 70 68 62 56 55 60 61 55 48 42 41
53 48 43 40 36 33 32 33 32 29 27 25 25 29 33 35 34 34 34 32 26 19 18 22 28 31 34 42 43 32 21 24 26 26 26 24 25 32 39 42 44 46 48 52 60 63 56 49 53 63 68 71 75 76 70 62 55 52 51 49 46 36 26
60 55 49 44 39 37 36 34 33 30 28 27 27 29 31 34 36 36 35 33 28 20 19 24 31 34 37 43 43 35 26 28 31 30 29 28 26 28 32 34 38 41 41 46 55 63 68 58 48 58 70 73 75 77 75 71 64 57 52 49 46 37 24
67 61 55 49 45 42 39 35 34 32 30 29 29 29 28 29 32 34 35 34 29 22 21 24 31 36 41 45 43 35 27 30 35 35 33 32 29 28 28 26 29 34 37 44 50 56 68 70 55 59 73 75 74 75 73 67 61 57 56 56 55 47 40
73 67 61 55 51 47 42 37 35 33 32 32 31 30 28 27 28 30 34 35 32 24 22 25 32 36 42 47 43 32 27 32 36 37 36 35 32 31 31 28 25 28 34 42 50 55 65 68 61 63 73 73 70 70 67 64 63 64 66 68 66 60 55
76 71 65 60 56 52 45 40 37 35 35 35 34 33 31 30 30 30 32 34 33 26 23 26 31 33 39 48 43 28 24 31 33 35 37 36 34 33 34 36 34 31 34 41 51 62 70 70 66 66 70 71 71 69 65 64 67 72 76 76 72 66 59
78 74 68 63 60 54 49 45 41 37 36 37 36 36 35 34 33 32 32 32 31 28 24 26 31 32 35 45 43 25 22 30 30 33 35 36 37 34 33 39 43 38 36 40 49 64 74 72 66 65 63 63 69 67 58 56 61 65 69 69 64 61 55
79 75 70 66 62 56 52 48 43 39 38 39 40 40 40 40 37 35 34 33 33 33 25 25 31 33 32 41 43 27 19 28 29 30 33 35 39 37 31 36 46 46 40 40 47 62 77 75 66 60 51 47 62 61 41 33 45 50 54 55 49 47 47
80 76 72 68 64 59 55 51 45 43 44 45 45 45 44 43 41 38 35 33 34 36 30 25 30 34 32 37 43 34 21 24 27 26 29 32 36 39 32 33 44 50 47 44 48 57 71 74 66 59 48 39 46 46 29 21 33 38 37 42 40 35 38
80 78 74 70 67 61 57 53 50 49 49 49 49 47 45 44 43 40 37 35 34 34 33 29 29 34 36 36 41 41 30 24 22 20 25 31 32 36 34 29 38 48 49 48 51 56 64 68 65 61 55 40 30 33 30 27 38 42 33 30 33 33 34
83 80 76 73 71 66 61 57 55 54 53 51 49 48 45 44 45 42 38 37 36 31 31 32 31 34 38 39 42 47 41 32 24 17 24 33 31 32 33 27 32 44 49 49 51 55 61 65 64 60 55 47 43 48 42 26 29 40 38 28 27 30 32
87 82 78 77 75 71 66 62 60 59 57 55 51 48 47 45 45 45 40 37 38 31 27 32 35 37 40 42 46 51 51 48 41 28 26 33 31 29 30 26 32 45 50 50 51 54 59 61 61 58 55 55 61 60 49 36 36 41 37 28 23 23 25
92 88 84 80 77 74 69 64 62 60 56 55 52 48 48 47 45 46 43 37 37 34 27 28 34 40 44 45 48 53 56 58 55 41 32 35 32 28 31 32 37 46 50 50 50 51 56 57 56 57 59 61 62 57 48 42 41 36 29 25 24 23 23
100 96 90 85 79 74 69 63 62 60 55 55 55 49 47 48 46 45 43 38 35 33 30 26 28 38 44 43 47 52 54 57 58 51 43 41 38 37 42 44 45 47 50 51 47 45 50 54 53 53 57 59 55 50 41 34 29 26 24 25 22 20 19